Hourly Data Report for January 18, 2022

WESTERN HEAD
NOVA SCOTIA
Current Station Operator: ECCC - MSC

43°59'24.070" N
64°39'51.008" W
10.10 m
8206240
71411
WWE

Download Data

Hourly Data (January 2022)
Hourly Data Report for January 18, 2022
TIME
LST
Temp Definition
°C
Dew Point Definition
°C
Rel Hum Definition
%
Precip. Amount Definition
mm

Wind Dir Definition
10's deg

Wind Spd Definition
km/h
Visibility Definition
km
Stn Press Definition
kPa
Hmdx Definition


Wind Chill Definition


Weather Definition


00:00 4.9 4.5 98 0.0 17 20   98.84     LegendNANA
01:00 4.6 4.1 97 0.0 21 12   98.78     LegendNANA
02:00 4.6 4.1 96 0.0 18 16   98.76     LegendNANA
03:00 4.5 3.9 96 0.0 19 13   98.69     LegendNANA
04:00 4.4 3.9 96 0.0 18 17   98.63     LegendNANA
05:00 4.4 3.9 96 0.0 19 23   98.69     LegendNANA
06:00 4.4 3.0 90 0.0 21 24   98.63     LegendNANA
07:00 3.7 2.2 90 0.0 23 18   98.63     LegendNANA
08:00 3.5 2.0 90 0.0 20 22   98.72     LegendNANA
09:00 3.4 2.1 91 0.0 22 17   98.70     LegendNANA
10:00 3.7 2.4 91 0.0 23 22   98.69     LegendNANA
11:00 3.6 2.3 91 0.0 23 24   98.73     LegendNANA
12:00 3.4 2.3 92 0.0 23 20   98.71     LegendNANA
13:00 1.4 0.1 91 0.0 29 20   98.78     LegendNANA
14:00 0.7 -1.4 86 0.0 28 21   98.89     LegendNANA
15:00 -0.9 -4.2 78 0.0 29 24   99.13   -7 LegendNANA
16:00 -1.9 -6.2 72 0.0 27 25   99.32   -8 LegendNANA
17:00 -2.9 -7.8 69 0.0 28 23   99.51   -9 LegendNANA
18:00 -3.2 -8.4 67 0.0 28 23   99.67   -10 LegendNANA
19:00 -3.7 -8.7 68 0.0 28 24   99.84   -11 LegendNANA
20:00 -3.9 -8.4 71 0.0 29 24   100.01   -11 LegendNANA
21:00 -4.6 -11.1 61 0.0 30 32   100.17   -13 LegendNANA
22:00 -5.4 -10.6 67 0.0 29 26   100.32   -13 LegendNANA
23:00 -6.3 -11.7 66 0.0 29 25   100.47   -14 LegendNANA

Notes on Data Quality.

Legend

  • E = Estimated
  • M = Missing
  • NA = Not Available*
  • [empty] = Indicates an unobserved value
Date modified: